This demonstration page uses our WeatherBlox Daily Observations layout. Learn more.

Hourly Observations for June 7, 2020

Temp ( °F °C ) Dew Point ( °F °C ) Humidity (%) Winds ( mph kmh ) Pressure ( in mb ) Visibility ( mi km ) Precip ( " mm )
12:15 am 00:15 Clear 66 19 54 12 64 64 N 8 13 30.04 1017 10 16.0934 N/A
12:35 am 00:35 Clear 66 19 54 12 64 64 N 10 17 30.05 1018 10 16.0934 N/A
12:55 am 00:55 Clear 64 18 54 12 68 68 N 9 15 30.05 1018 10 16.0934 N/A
1:16 am 01:16 Clear 63 17 54 12 73 73 N 10 17 30.06 1018 10 16.0934 N/A
1:35 am 01:35 Clear 63 17 54 12 73 73 N 8 13 30.06 1018 10 16.0934 N/A
1:55 am 01:55 Clear 63 17 54 12 73 73 N 8 13 30.06 1018 10 16.0934 N/A
2:15 am 02:15 Clear 61 16 54 12 77 77 N 7 11 30.05 1018 10 16.0934 N/A
2:35 am 02:35 Clear 61 16 54 12 77 77 N 7 11 30.05 1018 10 16.0934 N/A
2:56 am 02:56 Clear 61 16 54 12 77 77 N 6 9 30.05 1018 10 16.0934 N/A
3:16 am 03:16 Clear 61 16 54 12 77 77 N 6 9 30.05 1018 10 16.0934 N/A
3:35 am 03:35 Clear 59 15 54 12 82 82 N 5 7 30.05 1018 10 16.0934 N/A
3:56 am 03:56 Clear 59 15 54 12 82 82 N 5 7 30.04 1017 10 16.0934 N/A
4:15 am 04:15 Clear 57 14 54 12 88 88 N 6 9 30.05 1018 10 16.0934 N/A
4:36 am 04:36 Clear 57 14 54 12 88 88 N 7 11 30.06 1018 10 16.0934 N/A
4:55 am 04:55 Clear 57 14 54 12 88 88 NNE 6 9 30.05 1018 10 16.0934 N/A
5:16 am 05:16 Clear 57 14 54 12 88 88 N 3 6 30.05 1018 10 16.0934 N/A
5:36 am 05:36 Clear 57 14 54 12 88 88 N 6 9 30.06 1018 10 16.0934 N/A
5:56 am 05:56 Clear 55 13 54 12 94 94 N 6 9 30.07 1018 10 16.0934 N/A
6:15 am 06:15 Clear 55 13 55 13 100 100 NNE 7 11 30.07 1018 10 16.0934 N/A
6:36 am 06:36 Sunny 55 13 55 13 100 100 NNE 6 9 30.07 1018 10 16.0934 N/A
6:55 am 06:55 Sunny 55 13 55 13 100 100 NE 5 7 30.07 1018 10 16.0934 N/A
7:15 am 07:15 Sunny 55 13 55 13 100 100 ENE 6 9 30.07 1018 10 16.0934 N/A
7:35 am 07:35 Sunny 59 15 57 14 94 94 ENE 7 11 30.06 1018 10 16.0934 N/A
7:55 am 07:55 Sunny 61 16 59 15 94 94 E 6 9 30.06 1018 10 16.0934 N/A
8:16 am 08:16 Sunny 64 18 59 15 83 83 E 10 17 30.05 1018 10 16.0934 N/A
8:35 am 08:35 Sunny 66 19 57 14 73 73 E 7 11 30.06 1018 10 16.0934 N/A
8:55 am 08:55 Sunny 68 20 57 14 69 69 E 12 19 30.06 1018 10 16.0934 N/A
9:16 am 09:16 Sunny 70 21 57 14 64 64 ESE 12 19 30.06 1018 10 16.0934 N/A
9:35 am 09:35 Sunny 70 21 57 14 64 64 ESE 13 20 30.06 1018 10 16.0934 N/A
9:55 am 09:55 Sunny 72 22 57 14 61 61 ESE 10 17 30.04 1017 10 16.0934 N/A
10:16 am 10:16 Sunny 72 22 59 15 65 65 ESE 8 13 30.04 1017 10 16.0934 N/A
10:35 am 10:35 Sunny 73 23 59 15 61 61 E 9 15 30.05 1018 10 16.0934 N/A
10:55 am 10:55 Sunny 73 23 59 15 61 61 SE 8 13 30.06 1018 10 16.0934 N/A
11:15 am 11:15 Sunny 75 24 59 15 57 57 E 10 17 30.06 1018 10 16.0934 N/A
11:35 am 11:35 Sunny 75 24 61 16 61 61 E 10 17 30.06 1018 10 16.0934 N/A
11:56 am 11:56 Sunny 75 24 59 15 57 57 ESE 8 13 30.06 1018 10 16.0934 N/A
12:16 pm 12:16 Sunny 77 25 59 15 54 54 E 7 11 30.05 1018 10 16.0934 N/A
12:35 pm 12:35 Sunny 77 25 59 15 54 54 E 8 13 30.05 1018 10 16.0934 N/A
12:55 pm 12:55 Sunny 77 25 59 15 54 54 ENE 8 13 30.05 1018 10 16.0934 N/A
1:15 pm 13:15 Sunny 79 26 59 15 51 51 E 7 11 30.05 1018 10 16.0934 N/A
1:35 pm 13:35 Sunny 79 26 59 15 51 51 ENE 10 17 30.05 1018 10 16.0934 N/A
1:56 pm 13:56 Sunny 81 27 61 16 51 51 E 7 11 30.05 1017 10 16.0934 N/A
2:16 pm 14:16 Sunny 81 27 61 16 51 51 ENE 14 22 30.04 1017 10 16.0934 N/A
2:35 pm 14:35 Sunny 79 26 57 14 48 48 E 8 13 30.04 1017 10 16.0934 N/A
2:56 pm 14:56 Sunny 81 27 57 14 45 45 E 5 7 30.03 1017 10 16.0934 N/A
3:15 pm 15:15 Sunny 81 27 59 15 48 48 E 5 7 30.02 1016 10 16.0934 N/A
3:36 pm 15:36 Sunny 81 27 59 15 48 48 E 8 13 30.01 1016 10 16.0934 N/A
3:56 pm 15:56 Sunny 82 28 59 15 45 45 NE 6 9 30.01 1016 10 16.0934 N/A
4:15 pm 16:15 Sunny 82 28 59 15 45 45 ENE 9 15 30 1016 10 16.0934 N/A
4:36 pm 16:36 Sunny 82 28 59 15 45 45 E 8 13 29.99 1016 10 16.0934 N/A
4:56 pm 16:56 Sunny 82 28 59 15 45 45 ENE 8 13 29.99 1016 10 16.0934 N/A
5:16 pm 17:16 Sunny 82 28 59 15 45 45 E 9 15 29.99 1016 10 16.0934 N/A
5:35 pm 17:35 Sunny 82 28 57 14 42 42 ENE 8 13 29.98 1015 10 16.0934 N/A
5:55 pm 17:55 Sunny 82 28 57 14 42 42 E 6 9 29.98 1015 10 16.0934 N/A
6:15 pm 18:15 Sunny 81 27 57 14 45 45 Calm 29.99 1015 10 16.0934 N/A
6:36 pm 18:36 Sunny 81 27 57 14 45 45 E 8 13 29.99 1015 10 16.0934 N/A
6:55 pm 18:55 Sunny 81 27 57 14 45 45 E 7 11 29.99 1015 10 16.0934 N/A
7:15 pm 19:15 Sunny 81 27 57 14 45 45 E 9 15 29.99 1015 10 16.0934 N/A
7:36 pm 19:36 Sunny 81 27 57 14 45 45 ENE 8 13 29.99 1015 10 16.0934 N/A
7:55 pm 19:55 Sunny 79 26 57 14 48 48 E 7 11 29.99 1016 10 16.0934 N/A
8:15 pm 20:15 Sunny 77 25 59 15 54 54 ENE 6 9 29.99 1016 10 16.0934 N/A
8:35 pm 20:35 Sunny 75 24 57 14 54 54 ENE 7 11 30 1016 10 16.0934 N/A
8:56 pm 20:56 Sunny 73 23 57 14 57 57 ENE 7 11 30 1016 10 16.0934 N/A
9:15 pm 21:15 Clear 73 23 57 14 57 57 ENE 7 11 30 1016 10 16.0934 N/A
9:35 pm 21:35 Clear 72 22 59 15 65 65 ENE 6 9 29.99 1016 10 16.0934 N/A
9:55 pm 21:55 Clear 70 21 59 15 69 69 ENE 6 9 30 1016 10 16.0934 N/A
10:15 pm 22:15 Clear 70 21 59 15 69 69 ENE 6 9 30.01 1016 10 16.0934 N/A
10:35 pm 22:35 Clear 68 20 59 15 73 73 Calm 30.01 1016 10 16.0934 N/A
10:56 pm 22:56 Clear 68 20 59 15 73 73 Calm 30.01 1016 10 16.0934 N/A
11:16 pm 23:16 Clear 68 20 59 15 73 73 Calm 30.02 1017 10 16.0934 N/A
11:35 pm 23:35 Clear 68 20 59 15 73 73 Calm 30.02 1017 10 16.0934 N/A
11:55 pm 23:55 Clear 66 19 59 15 78 78 Calm 30.01 1016 10 16.0934 N/A

Powered by AerisWeather